This is the latest recevied weather packets stored in our database for station/object NY5V. If no packets are shown the sender has not sent any weather packets the latest 10 day(s).
| Time | Temp. | Humidity | Pressure | Rain* | Wind** | Luminosity | Snow |
|---|---|---|---|---|---|---|---|
| 1777695288 | 12.78° C | 97% | 1017.7 hPa | 0 mm | - | 0 W/m² | - |
| 1777694687 | 12.78° C | 97% | 1017.8 hPa | 0 mm | - | 0 W/m² | - |
| 1777694086 | 12.78° C | 96% | 1017.8 hPa | 0 mm | - | 0 W/m² | - |
| 1777693482 | 12.78° C | 96% | 1017.6 hPa | 0 mm | - | 0 W/m² | - |
| 1777692883 | 12.78° C | 96% | 1017.7 hPa | 0 mm | - | 0 W/m² | - |
| 1777692282 | 12.78° C | 95% | 1017.7 hPa | 0 mm | - | 0 W/m² | - |
| 1777691678 | 13.33° C | 95% | 1017.8 hPa | 0 mm | - | 0 W/m² | - |
| 1777691073 | 12.78° C | 94% | 1017.8 hPa | 0 mm | - | 0 W/m² | - |
| 1777690473 | 12.78° C | 94% | 1017.1 hPa | 0 mm | - | 0 W/m² | - |
| 1777689869 | 12.78° C | 94% | 1016.8 hPa | 0 mm | - | 0 W/m² | - |
| 1777689264 | 12.78° C | 93% | 1017.2 hPa | 0 mm | - | 0 W/m² | - |
| 1777688664 | 13.33° C | 93% | 1016.9 hPa | 0 mm | - | 0 W/m² | - |
| 1777688058 | 13.33° C | 93% | 1016.8 hPa | 0 mm | - | 0 W/m² | - |
| 1777687454 | 12.78° C | 94% | 1016.9 hPa | 0 mm | - | 0 W/m² | - |
| 1777686853 | 12.78° C | 96% | 1016.7 hPa | 0 mm | - | 0 W/m² | - |
| 1777686252 | 12.78° C | 96% | 1017.2 hPa | 0 mm | - | 0 W/m² | - |
| 1777685650 | 13.33° C | 96% | 1017.1 hPa | 0 mm | - | 0 W/m² | - |
| 1777685045 | 13.33° C | 95% | 1016.9 hPa | 0 mm | - | 0 W/m² | - |
| 1777684444 | 13.33° C | 94% | 1016.3 hPa | 0 mm | - | 0 W/m² | - |
| 1777683843 | 13.33° C | 94% | 1016.8 hPa | 0 mm | - | 0 W/m² | - |
| 1777683244 | 13.33° C | 93% | 1016.1 hPa | 0 mm | - | 2 W/m² | - |
| 1777682643 | 13.33° C | 93% | 1015.6 hPa | 0 mm | - | 9 W/m² | - |
| 1777682038 | 13.33° C | 91% | 1015.8 hPa | 0 mm | - | 3 W/m² | - |
| 1777681437 | 13.33° C | 91% | 1015.8 hPa | 0 mm | - | 7 W/m² | - |
| 1777680838 | 13.33° C | 90% | 1016 hPa | 0 mm | - | 5 W/m² | - |
* Rain latest hour (hover to see other rain measurements)
** Current wind speed in m/s (hover to see current wind gust speed)